Tracking 25648 objects as of 17-May-2022
HD Live streaming from Space Station
objects crossing your sky now

CZ-3A DEB

Track CZ-3A DEB now!


NORAD ID: 36971
Int'l Code: 2007-003AH
Perigee: 548.7 km
Apogee: 44,718.1 km
Inclination: 26.6 °
Period: 819.3 minutes
Semi major axis: 29004 km
RCS: 0.005 m2 (small)
Launch date: February 2, 2007
Source: People's Republic of China (PRC)
Launch site: Xichang Space Center, China (XSC)

Note: This is SATELLITE DEBRIS
aabbcc
Your satellite tracking list
Your tracking list is empty




NASA's NSSDC Master Catalog

Two Line Element Set (TLE):
1 36971U 07003AH  22136.77136933 -.00000484  00000-0 -38467-2 0  9997
2 36971  26.6140 356.7705 7614269 103.2103 343.2806  1.75755157 86255
Source of the keplerian elements: AFSPC